Temperature
17 17 17 17 17 17 17 17 17 17 17 17 17 17 17 17 17 17 16 16 16 16 16 16 16 16 16 16 16 16 15 15 15 15 15 15 15 15 15 15 15 15 15
18 17 17 17 17 17 17 18 18 17 17 17 17 17 17 17 17 16 16 16 16 16 16 16 16 16 16 16 15 15 15 15 15 15 15 15 15 15 15 15 15 15 15
18 17 17 17 17 17 17 17 17 17 17 17 17 17 16 16 16 16 16 16 16 16 16 16 16 16 16 15 15 15 15 15 15 15 15 15 15 15 15 14 14 14 14
18 17 17 17 17 17 17 17 17 17 17 17 17 16 16 16 16 16 16 16 16 16 16 16 16 15 15 15 15 15 15 15 15 15 15 15 15 14 14 14 14 14 14
17 17 17 17 17 17 17 17 17 17 17 17 16 16 16 16 16 16 16 16 15 15 15 15 15 15 15 15 15 15 15 15 15 15 15 14 14 14 14 14 14 14 13
17 17 17 17 17 17 17 17 17 17 16 16 16 16 16 16 16 16 15 15 15 15 15 15 15 15 15 15 15 15 15 14 14 14 14 14 14 13 13 13 13 13 13
17 16 16 16 17 17 17 17 16 16 16 16 16 16 16 16 16 15 15 15 15 15 15 15 15 15 14 14 14 14 14 14 14 14 14 14 13 13 13 13 13 13 13
17 16 16 16 16 16 16 16 16 16 16 16 16 16 16 15 15 15 15 15 15 15 15 14 14 14 14 14 14 14 14 14 14 14 13 13 13 13 12 12 12 12 12
16 16 16 16 16 16 16 16 16 16 16 16 16 16 15 15 15 15 15 15 15 15 14 14 14 14 14 14 14 14 14 14 14 13 13 13 13 12 12 12 12 12 11
15 15 16 16 16 16 16 16 16 16 15 15 15 15 15 15 15 15 15 15 14 14 14 14 14 14 14 14 14 14 13 13 13 13 13 13 12 12 11 11 11 11 11
15 15 15 15 15 15 15 15 15 15 15 15 15 15 15 15 15 15 15 14 14 14 14 14 14 14 14 14 13 13 13 13 13 13 13 12 12 11 11 11 10 10 10
15 15 15 15 15 15 15 15 15 15 15 15 15 15 15 15 15 15 14 14 14 14 14 14 14 14 13 13 13 13 13 13 13 13 12 12 12 11 11 10 10 10 10
15 15 15 15 15 15 15 15 15 15 15 15 15 15 15 15 14 14 14 14 14 14 14 14 13 13 13 13 13 13 13 13 13 12 12 12 11 11 10 10 10 10 10
15 15 14 14 15 15 15 15 15 15 15 15 14 14 14 14 14 14 14 14 14 14 13 13 13 13 13 13 13 13 13 12 12 12 12 11 11 10 10 10 9 9 9
14 14 14 14 14 14 14 14 14 14 14 14 14 14 14 14 14 14 14 14 13 13 13 13 13 13 13 13 13 12 12 12 12 12 11 11 11 10 10 9 9 9 9
14 14 14 14 14 14 14 14 14 14 14 14 14 14 14 14 14 14 14 13 13 13 13 13 13 13 12 12 12 12 12 12 11 11 11 10 10 10 10 9 9 9 8
14 14 14 14 14 14 14 14 14 14 14 14 14 14 14 14 14 14 13 13 13 13 13 12 12 12 12 12 12 12 12 11 11 11 10 10 10 9 9 9 9 8 8
14 14 14 13 13 13 13 13 14 13 13 13 13 13 13 13 13 13 13 13 13 12 12 12 12 12 12 12 12 12 11 11 11 10 10 9 9 9 9 9 8 8 8
14 14 13 13 13 13 13 13 13 13 13 13 13 13 13 13 13 13 13 13 12 12 12 12 12 12 12 12 11 11 11 10 10 10 9 9 9 8 8 8 8 8 8
13 13 13 13 13 13 13 13 12 12 12 13 13 13 13 13 13 13 13 12 12 12 12 12 11 11 11 11 11 11 11 10 10 9 9 8 8 8 8 8 7 7 7
13 13 13 13 13 13 12 12 12 12 12 12 12 12 12 12 12 12 12 12 12 12 12 11 11 11 11 10 10 10 10 10 9 9 8 8 8 7 7 7 7 7 7
13 13 13 13 13 12 12 12 12 12 12 12 12 12 12 12 12 12 12 12 12 11 11 11 11 10 10 10 9 9 9 9 9 8 8 8 7 7 7 7 6 6 6
12 12 12 12 12 12 12 12 12 12 11 11 11 12 12 12 12 12 11 11 11 11 11 11 10 10 10 9 9 8 7 7 7 7 7 7 7 6 6 6 6 6 5
12 12 12 12 12 12 12 12 12 12 12 12 12 11 11 11 11 11 11 11 11 11 10 10 10 9 9 9 8 7 7 6 6 6 7 7 6 6 6 5 5 5 5
12 12 12 12 12 12 11 11 11 11 11 11 11 11 11 11 11 11 11 11 10 10 10 9 9 9 9 8 8 7 7 6 6 5 5 6 6 6 5 5 5 5 4
11 11 11 11 11 11 11 11 11 11 11 11 11 11 11 11 10 10 10 10 10 10 9 9 9 8 8 8 7 7 6 5 5 5 5 5 5 5 5 5 4 4 4
Wind_Speed
7 12 18 18 19 19 18 18 18 18 18 18 18 18 17 17 17 17 16 16 16 16 17 17 17 17 17 16 16 16 16 16 16 16 16 16 16 16 15 15 14 13 14
11 16 19 19 19 19 19 19 18 18 18 18 17 17 17 17 17 17 16 16 16 16 17 17 17 16 16 16 16 16 15 15 15 15 15 14 14 15 14 14 13 12 13
14 17 19 20 20 19 19 19 19 18 18 17 17 17 16 16 16 16 16 16 16 16 16 16 16 16 15 15 15 15 14 14 14 14 14 12 12 13 13 13 12 12 12
16 17 18 20 20 20 20 19 19 18 18 17 17 17 16 16 16 16 16 16 16 16 15 15 15 15 14 14 14 14 14 14 14 14 12 12 11 12 12 12 12 12 11
15 17 19 21 20 20 20 20 19 18 17 17 16 16 16 16 16 16 16 16 15 15 15 15 14 14 14 14 14 14 14 14 14 13 12 11 10 11 12 12 12 11 11
13 17 19 21 20 20 20 19 19 18 17 17 16 16 16 16 16 16 15 15 15 14 14 14 13 13 13 13 13 13 14 14 13 12 11 10 9 11 11 12 12 11 11
12 15 19 21 20 20 19 19 19 18 18 17 17 16 16 16 16 16 15 14 14 13 13 13 12 12 12 13 13 13 14 13 12 11 9 9 9 10 11 11 11 11 11
13 15 17 20 20 19 19 19 19 18 18 18 17 17 17 16 16 15 15 14 13 13 13 13 12 12 12 13 13 13 13 12 11 10 9 9 9 10 10 10 11 11 11
13 13 14 16 18 19 19 19 19 19 18 18 17 17 17 16 16 15 14 13 13 13 12 12 12 12 12 12 12 13 13 12 11 9 8 8 9 10 10 11 11 11 11
11 11 11 14 15 16 17 18 19 19 18 18 17 17 16 16 15 14 14 13 12 12 11 11 11 11 11 11 11 12 12 11 10 9 7 8 9 10 10 11 11 11 11
11 9 10 11 13 14 15 17 18 18 18 17 16 16 15 14 13 13 13 12 12 11 10 10 9 10 10 11 10 11 10 10 9 8 7 8 9 9 10 10 10 11 11
12 10 9 11 12 13 13 14 14 14 15 15 15 15 14 13 12 12 12 11 10 10 9 9 9 9 9 9 9 9 9 9 9 7 7 8 9 9 9 10 10 10 11
13 11 10 10 12 12 11 11 11 12 12 13 14 14 14 13 11 11 10 9 9 9 8 8 9 8 8 7 7 7 8 8 8 8 8 9 9 9 10 10 10 10 10
12 11 10 10 10 11 11 10 10 10 10 10 12 14 13 10 8 8 7 7 7 7 7 7 7 8 8 7 7 7 7 7 7 7 8 9 9 10 10 10 10 10 11
12 11 10 11 11 10 10 9 9 9 9 11 11 12 13 9 7 7 6 7 6 6 6 6 6 6 6 6 6 6 5 6 6 7 7 8 9 9 10 10 10 11 11
13 12 11 10 11 11 8 7 8 9 10 11 11 12 12 11 9 7 6 5 5 5 6 6 5 5 4 5 4 5 4 4 5 5 6 7 8 9 10 10 11 11 12
13 12 12 11 11 10 9 9 9 10 11 10 10 12 12 11 10 8 6 4 5 6 6 6 6 5 4 4 3 3 3 3 4 4 4 5 6 8 9 11 11 12 13
12 12 12 11 11 10 9 9 9 10 10 10 10 11 11 11 11 9 6 4 5 6 5 4 3 3 3 3 2 2 2 2 3 3 4 4 5 5 8 10 12 13 13
12 13 12 11 11 10 9 9 9 9 9 9 10 10 10 11 11 9 6 5 6 6 4 3 2 2 2 3 2 2 2 1 1 2 3 3 4 5 7 9 11 12 13
11 11 12 11 11 10 9 7 6 6 6 7 8 9 10 10 10 9 7 6 6 5 3 3 2 3 2 2 2 3 3 2 1 1 2 3 4 5 7 8 9 10 13
10 11 12 12 11 10 8 7 6 5 4 4 5 8 9 10 9 8 6 5 5 3 3 3 2 3 2 2 2 3 3 3 2 2 2 2 3 5 8 8 9 9 10
11 11 12 12 12 11 8 6 4 5 3 3 4 6 8 9 9 8 6 5 4 3 3 3 3 2 2 3 2 1 3 4 3 3 3 2 3 5 6 8 8 9 10
10 11 12 12 11 10 9 7 6 5 4 2 2 2 4 7 8 8 7 6 4 4 3 2 2 3 1 1 2 2 1 2 4 3 3 3 3 4 5 7 8 9 10
10 9 10 11 11 10 10 11 11 8 5 4 4 3 3 6 7 7 7 7 5 4 3 2 2 2 3 1 1 1 1 1 1 4 4 3 5 4 4 6 7 8 10
9 9 9 9 10 9 9 11 11 7 5 4 4 5 3 3 5 6 7 6 5 3 3 3 2 2 2 2 1 0 1 1 0 1 5 6 5 4 4 5 4 6 9
7 8 8 9 9 9 9 9 10 10 8 7 6 5 4 2 3 4 6 5 4 3 3 3 2 3 2 1 1 1 1 0 1 1 4 7 7 6 6 4 4 6 9
Wind_Direction
153 154 146 140 135 131 127 122 119 115 112 109 106 104 101 100 98 97 95 93 91 88 86 84 81 80 79 78 76 74 74 71 70 67 66 65 65 64 61 57 56 52 53
148 149 143 140 136 132 128 124 120 118 115 112 109 107 104 102 101 99 97 94 91 89 86 84 82 80 78 78 76 74 72 71 69 68 65 61 61 61 59 57 55 52 50
140 143 142 140 136 133 129 126 123 120 117 115 113 111 108 106 104 101 98 94 91 88 86 84 82 80 78 76 75 72 70 70 69 67 62 55 56 60 59 56 54 50 47
138 140 140 138 135 132 131 128 125 123 119 118 116 114 111 108 105 102 99 96 92 90 87 84 82 80 77 74 73 71 69 69 69 66 58 52 52 58 57 54 51 48 45
134 138 139 137 135 133 131 128 126 125 122 120 118 115 112 110 107 103 100 97 94 91 88 86 83 79 76 73 71 68 69 71 71 65 56 50 49 54 54 52 49 46 43
131 135 139 138 137 134 132 130 127 125 125 122 120 117 114 112 108 104 100 98 96 93 90 87 83 79 75 71 68 67 73 73 68 62 54 48 47 53 52 50 47 43 39
132 135 140 139 138 135 134 131 129 126 124 122 120 118 116 114 110 106 102 100 98 95 92 88 84 78 73 68 66 68 73 69 62 56 48 44 48 51 49 46 43 38 35
133 133 136 138 137 136 135 134 130 128 126 123 121 119 118 114 111 108 105 101 99 96 93 88 83 77 73 68 67 68 66 64 59 55 47 45 47 46 44 40 37 34 31
129 129 130 132 131 132 132 132 129 127 125 123 121 118 117 114 111 108 105 102 99 95 92 88 83 78 74 71 70 66 61 59 56 54 48 44 45 42 40 37 34 31 26
123 125 124 126 128 127 127 128 127 126 124 122 119 117 116 113 110 107 104 103 99 94 91 88 82 78 75 72 69 63 58 53 52 52 43 42 42 37 33 31 28 24 22
131 130 126 125 125 125 126 127 126 125 123 120 117 115 111 106 105 104 103 101 97 93 91 88 81 77 75 70 66 60 55 51 51 46 39 41 38 34 31 29 27 24 19
146 142 136 132 130 129 129 124 122 122 121 120 118 115 110 108 106 105 104 101 97 92 87 81 77 74 69 64 60 57 54 50 50 41 39 37 34 29 27 25 22 18 14
151 147 144 139 136 132 129 128 123 123 121 121 122 120 116 107 103 100 95 90 87 82 73 70 67 66 67 68 63 59 56 54 51 44 37 35 32 27 24 20 16 12 10
153 151 149 143 137 134 133 132 131 129 126 125 126 126 120 109 102 99 94 90 83 79 74 69 68 65 66 68 70 65 59 59 56 47 38 36 31 26 22 16 11 7 6
155 155 156 150 144 140 135 136 134 133 131 130 128 129 127 120 115 107 99 93 86 83 82 78 73 67 64 65 63 65 59 56 57 53 43 37 30 24 19 13 6 2 359
159 159 156 153 148 143 139 136 135 136 134 129 129 132 130 126 123 114 102 93 87 88 91 91 80 73 64 62 58 59 62 57 58 53 48 39 29 22 16 9 2 358 354
160 157 157 155 149 145 142 139 136 137 135 130 131 133 132 130 127 120 109 97 92 92 89 86 73 68 59 51 41 41 51 52 61 55 47 41 30 21 16 8 1 357 352
156 156 158 156 151 146 142 137 136 136 134 132 132 132 131 132 130 119 109 101 100 94 86 80 69 58 43 34 15 359 24 39 56 54 49 37 28 21 13 4 360 355 351
160 158 155 154 153 147 139 134 131 131 130 133 131 131 132 132 131 122 114 107 103 90 78 71 56 66 45 21 2 357 359 12 19 46 38 30 18 13 8 358 353 351 348
159 157 153 151 151 141 132 124 117 113 118 125 128 133 133 131 131 125 116 109 105 92 76 72 65 48 48 9 2 355 337 330 340 6 4 11 5 2 359 353 346 341 343
155 156 156 154 154 149 147 148 146 148 142 123 125 134 134 133 133 126 119 110 106 106 111 100 78 60 31 14 35 357 337 330 328 322 328 331 344 351 351 347 344 340 338
165 166 163 162 160 161 160 157 147 141 135 131 123 125 133 135 136 135 126 121 115 111 101 93 85 77 35 34 65 41 348 336 334 322 310 303 323 344 344 342 340 339 339
170 173 171 168 164 160 148 135 123 102 92 104 130 133 131 138 138 135 132 125 116 118 128 121 114 107 103 23 52 103 102 275 306 305 297 306 322 332 328 332 335 338 338
177 173 171 168 164 159 152 153 154 158 161 178 167 156 135 137 135 135 132 126 118 115 125 131 108 112 123 116 18 41 150 193 260 310 309 312 318 315 311 321 327 332 333
173 169 167 165 164 162 162 163 162 160 157 144 141 142 137 123 130 137 134 127 120 118 120 116 110 108 121 148 159 162 35 9 272 260 301 314 317 302 303 305 311 327 332
163 162 162 161 162 165 166 166 167 164 156 150 154 157 154 143 128 131 134 128 127 123 127 128 119 118 131 135 147 163 182 214 296 285 288 304 308 305 305 300 304 322 330
Height
1523 1526 1529 1531 1532 1534 1535 1537 1538 1539 1540 1541 1542 1543 1543 1544 1544 1545 1545 1546 1546 1546 1546 1546 1546 1546 1545 1545 1544 1544 1543 1543 1543 1542 1542 1541 1541 1540 1539 1539 1538 1537 1536
1521 1525 1528 1531 1533 1534 1536 1537 1539 1540 1541 1542 1543 1544 1544 1545 1546 1546 1546 1547 1547 1547 1547 1547 1547 1547 1546 1546 1545 1545 1544 1544 1543 1543 1543 1542 1541 1541 1540 1539 1538 1537 1536
1522 1525 1528 1531 1533 1535 1536 1538 1539 1541 1542 1543 1544 1545 1546 1546 1547 1547 1547 1548 1548 1548 1548 1548 1548 1548 1547 1547 1546 1546 1545 1545 1544 1544 1543 1543 1542 1541 1541 1540 1539 1538 1537
1522 1525 1528 1531 1533 1535 1537 1538 1540 1541 1543 1544 1545 1546 1547 1547 1548 1548 1548 1549 1549 1549 1549 1549 1549 1549 1549 1548 1547 1547 1546 1546 1545 1545 1544 1544 1543 1542 1541 1540 1539 1538 1537
1522 1525 1528 1531 1533 1535 1537 1539 1540 1542 1543 1544 1546 1547 1548 1548 1549 1549 1550 1550 1550 1550 1550 1550 1550 1550 1549 1549 1548 1548 1547 1547 1546 1546 1545 1544 1543 1543 1542 1540 1539 1538 1537
1522 1526 1528 1531 1533 1535 1537 1539 1541 1542 1544 1545 1546 1547 1548 1549 1550 1550 1551 1551 1551 1551 1551 1551 1551 1551 1550 1550 1549 1549 1548 1548 1547 1546 1546 1545 1544 1543 1542 1541 1540 1538 1537
1522 1526 1529 1531 1534 1536 1538 1539 1541 1543 1544 1546 1547 1548 1549 1550 1550 1551 1551 1552 1552 1552 1552 1552 1552 1552 1551 1551 1550 1550 1549 1548 1548 1547 1546 1545 1544 1543 1542 1541 1540 1538 1537
1522 1526 1529 1532 1534 1536 1538 1540 1541 1543 1545 1546 1547 1548 1549 1550 1551 1552 1552 1553 1553 1553 1553 1553 1553 1552 1552 1551 1551 1550 1550 1549 1548 1547 1546 1545 1544 1543 1542 1541 1539 1538 1536
1523 1526 1529 1532 1534 1536 1538 1540 1542 1543 1545 1546 1548 1549 1550 1551 1552 1552 1553 1553 1553 1553 1554 1553 1553 1553 1552 1552 1551 1551 1550 1549 1548 1547 1546 1545 1544 1543 1542 1540 1538 1537 1535
1524 1526 1529 1531 1533 1536 1538 1540 1542 1544 1545 1547 1548 1549 1550 1551 1552 1553 1553 1554 1554 1554 1554 1554 1554 1553 1553 1552 1552 1551 1550 1549 1548 1547 1546 1545 1544 1543 1541 1539 1538 1536 1534
1524 1526 1529 1531 1533 1535 1538 1540 1542 1544 1545 1547 1548 1550 1551 1552 1552 1553 1554 1554 1554 1554 1554 1554 1554 1553 1553 1552 1552 1551 1550 1549 1548 1547 1546 1545 1543 1542 1540 1538 1537 1535 1533
1522 1525 1528 1530 1533 1535 1537 1540 1542 1544 1545 1547 1548 1550 1551 1552 1553 1553 1554 1554 1554 1554 1554 1554 1554 1553 1553 1552 1552 1551 1550 1549 1548 1546 1545 1544 1542 1541 1539 1538 1536 1534 1532
1521 1524 1528 1530 1533 1535 1537 1539 1541 1543 1545 1547 1548 1550 1551 1552 1553 1553 1554 1554 1554 1554 1554 1554 1554 1553 1553 1552 1551 1551 1550 1549 1547 1546 1544 1543 1541 1540 1538 1536 1535 1533 1531
1520 1524 1527 1530 1532 1535 1537 1539 1541 1543 1545 1546 1548 1549 1550 1551 1552 1553 1554 1554 1554 1554 1554 1554 1554 1553 1553 1552 1551 1550 1549 1548 1547 1545 1544 1542 1540 1539 1537 1535 1533 1531 1529
1519 1523 1526 1529 1531 1534 1536 1539 1541 1543 1544 1546 1548 1549 1550 1551 1552 1553 1553 1554 1554 1554 1554 1553 1553 1553 1552 1552 1551 1550 1549 1547 1546 1545 1543 1541 1539 1537 1536 1534 1532 1530 1527
1518 1521 1525 1528 1530 1533 1535 1538 1540 1542 1544 1546 1547 1548 1550 1551 1552 1552 1553 1553 1553 1553 1553 1553 1552 1552 1551 1551 1550 1549 1548 1546 1545 1544 1542 1540 1538 1536 1534 1532 1530 1528 1525
1516 1520 1523 1526 1529 1532 1535 1537 1539 1542 1543 1545 1547 1548 1549 1550 1551 1551 1552 1552 1552 1552 1552 1552 1551 1551 1550 1550 1549 1548 1547 1546 1544 1543 1541 1539 1537 1535 1533 1531 1528 1526 1523
1515 1518 1521 1525 1528 1531 1533 1536 1538 1541 1543 1544 1546 1547 1548 1549 1550 1551 1551 1551 1551 1551 1551 1551 1550 1550 1549 1548 1547 1546 1545 1544 1543 1541 1540 1538 1536 1534 1532 1529 1526 1524 1521
1513 1516 1519 1523 1526 1529 1532 1535 1537 1539 1541 1543 1545 1546 1547 1548 1549 1550 1550 1550 1550 1550 1550 1550 1549 1548 1547 1547 1546 1545 1544 1543 1541 1540 1539 1537 1535 1532 1530 1527 1525 1522 1519
1512 1515 1518 1521 1524 1527 1530 1533 1535 1538 1540 1542 1543 1545 1546 1547 1548 1549 1549 1549 1549 1549 1549 1548 1548 1547 1546 1545 1544 1543 1542 1541 1540 1538 1537 1535 1533 1531 1528 1525 1522 1519 1516
1509 1512 1515 1518 1521 1524 1527 1530 1532 1535 1538 1540 1542 1543 1545 1546 1547 1547 1547 1547 1547 1547 1547 1547 1546 1545 1544 1543 1542 1541 1540 1539 1538 1537 1535 1533 1531 1529 1526 1523 1520 1517 1514
1506 1509 1513 1516 1519 1522 1525 1528 1531 1534 1536 1538 1540 1541 1543 1544 1545 1546 1546 1546 1546 1546 1545 1545 1544 1543 1543 1542 1541 1539 1537 1537 1535 1534 1532 1530 1529 1527 1524 1521 1518 1514 1511
1503 1506 1509 1513 1516 1520 1523 1526 1529 1532 1534 1536 1537 1539 1541 1542 1543 1544 1544 1544 1544 1544 1543 1543 1543 1542 1541 1541 1540 1539 1537 1534 1532 1530 1529 1528 1526 1524 1521 1518 1515 1512 1508
1500 1503 1507 1511 1514 1517 1520 1523 1525 1527 1529 1532 1534 1537 1539 1540 1541 1542 1542 1542 1542 1542 1542 1541 1541 1540 1540 1539 1538 1538 1537 1535 1533 1528 1526 1525 1523 1521 1518 1515 1512 1509 1505
1497 1500 1504 1508 1511 1514 1517 1520 1523 1526 1528 1531 1533 1535 1536 1537 1539 1539 1540 1540 1540 1540 1540 1539 1539 1538 1538 1537 1536 1535 1534 1533 1532 1529 1524 1521 1519 1517 1515 1512 1509 1505 1502
1494 1498 1501 1505 1508 1511 1515 1517 1520 1523 1525 1528 1529 1531 1533 1535 1536 1537 1538 1538 1538 1538 1538 1537 1537 1536 1536 1535 1534 1533 1532 1531 1529 1527 1523 1519 1515 1513 1511 1509 1506 1502 1498